| time (UTC) | temp F | wind direction | speed MPH | gust MPH | rain 1hr in | rain 24hr in | rain mn in | humidity % | barometer mb |
| 20260510104734 | 54 | 228 | 2.0 | 3.0 | 0.00 | 0.09 | 0.00 | 92 | 1011.6 |
| 20260510104234 | 54 | 238 | 2.0 | 4.0 | 0.00 | 0.09 | 0.00 | 92 | 1011.5 |
| 20260510103735 | 54 | 227 | 2.0 | 4.0 | 0.00 | 0.10 | 0.00 | 92 | 1011.6 |
| 20260510103233 | 54 | 221 | 2.0 | 4.0 | 0.00 | 0.10 | 0.00 | 92 | 1011.6 |
| 20260510102733 | 54 | 236 | 3.0 | 4.0 | 0.00 | 0.11 | 0.00 | 92 | 1011.5 |
| 20260510102233 | 54 | 214 | 2.0 | 4.0 | 0.00 | 0.11 | 0.00 | 92 | 1011.5 |
| 20260510101938 | 54 | 206 | 2.0 | 4.0 | 0.00 | 0.11 | 0.00 | 92 | 1011.4 |
| 20260510101220 | 54 | 224 | 2.0 | 4.0 | 0.00 | 0.11 | 0.00 | 92 | 1011.2 |
| 20260510100720 | 54 | 277 | 2.0 | 3.0 | 0.00 | 0.11 | 0.00 | 91 | 1011.2 |
| 20260510100220 | 54 | 242 | 2.0 | 4.0 | 0.00 | 0.11 | 0.00 | 91 | 1010.9 |
| 20260510095720 | 55 | 223 | 3.0 | 4.0 | 0.00 | 0.11 | 0.00 | 91 | 1010.8 |
| 20260510095221 | 55 | 202 | 2.0 | 4.0 | 0.00 | 0.11 | 0.00 | 91 | 1010.8 |
| 20260510094720 | 55 | 201 | 2.0 | 4.0 | 0.00 | 0.11 | 0.00 | 90 | 1010.7 |
| 20260510094206 | 55 | 182 | 2.0 | 3.0 | 0.00 | 0.12 | 0.00 | 90 | 1010.7 |
| 20260510093706 | 55 | 160 | 2.0 | 3.0 | 0.00 | 0.12 | 0.00 | 91 | 1010.6 |
| 20260510093206 | 55 | 221 | 2.0 | 3.0 | 0.00 | 0.12 | 0.00 | 90 | 1010.6 |
| 20260510092707 | 55 | 225 | 2.0 | 3.0 | 0.00 | 0.13 | 0.00 | 90 | 1010.6 |
| 20260510092431 | 55 | 223 | 2.0 | 3.0 | 0.00 | 0.13 | 0.00 | 89 | 1010.4 |
| 20260510091707 | 55 | 170 | 2.0 | 3.0 | 0.00 | 0.13 | 0.00 | 90 | 1010.4 |
| 20260510091206 | 55 | 191 | 1.0 | 3.0 | 0.00 | 0.13 | 0.00 | 90 | 1010.5 |
| 20260510090706 | 55 | 234 | 1.0 | 4.0 | 0.00 | 0.13 | 0.00 | 89 | 1010.4 |
| 20260510090154 | 55 | 0 | 1.0 | 4.0 | 0.00 | 0.13 | 0.00 | 89 | 1010.4 |
| 20260510085652 | 56 | 227 | 2.0 | 3.0 | 0.00 | 0.13 | 0.00 | 88 | 1010.4 |
| 20260510085415 | 56 | 217 | 2.0 | 3.0 | 0.00 | 0.14 | 0.00 | 88 | 1010.3 |
| 20260510084653 | 56 | 242 | 1.0 | 3.0 | 0.00 | 0.14 | 0.00 | 88 | 1010.3 |
| 20260510084152 | 56 | 251 | 1.0 | 2.0 | 0.00 | 0.15 | 0.00 | 88 | 1010.3 |
| 20260510083652 | 56 | 213 | 1.0 | 3.0 | 0.00 | 0.15 | 0.00 | 87 | 1010.4 |
| 20260510083152 | 56 | 241 | 2.0 | 4.0 | 0.00 | 0.15 | 0.00 | 86 | 1010.4 |
| 20260510082652 | 56 | 211 | 2.0 | 4.0 | 0.00 | 0.15 | 0.00 | 86 | 1010.4 |
| 20260510082150 | 57 | 241 | 2.0 | 5.0 | 0.00 | 0.16 | 0.00 | 86 | 1010.4 |
| 20260510081649 | 57 | 228 | 2.0 | 5.0 | 0.00 | 0.16 | 0.00 | 86 | 1010.4 |
| 20260510081150 | 57 | 235 | 2.0 | 5.0 | 0.00 | 0.17 | 0.00 | 85 | 1010.4 |
| 20260510080650 | 57 | 264 | 2.0 | 5.0 | 0.00 | 0.17 | 0.00 | 85 | 1010.3 |
| 20260510080412 | 57 | 269 | 3.0 | 6.0 | 0.00 | 0.17 | 0.00 | 85 | 1010.3 |
| 20260510075650 | 57 | 224 | 3.0 | 6.0 | 0.00 | 0.18 | 0.00 | 86 | 1010.3 |
| 20260510075150 | 56 | 197 | 3.0 | 5.0 | 0.00 | 0.19 | 0.00 | 86 | 1010.3 |
| 20260510074650 | 56 | 192 | 2.0 | 4.0 | 0.00 | 0.19 | 0.00 | 86 | 1010.2 |
| 20260510074150 | 57 | 236 | 2.0 | 5.0 | 0.00 | 0.19 | 0.00 | 86 | 1010.1 |
| 20260510073651 | 57 | 218 | 2.0 | 5.0 | 0.00 | 0.19 | 0.00 | 86 | 1010.1 |
| 20260510073150 | 57 | 258 | 2.0 | 5.0 | 0.00 | 0.19 | 0.00 | 86 | 1010.0 |
| 20260510072649 | 57 | 209 | 2.0 | 4.0 | 0.00 | 0.19 | 0.00 | 86 | 1010.0 |
| 20260510072145 | 57 | 143 | 2.0 | 5.0 | 0.00 | 0.19 | 0.00 | 85 | 1010.1 |
| 20260510071645 | 57 | 242 | 2.0 | 5.0 | 0.00 | 0.19 | 0.00 | 85 | 1010.1 |
| 20260510071145 | 57 | 268 | 2.0 | 5.0 | 0.00 | 0.19 | 0.00 | 85 | 1010.1 |
| 20260510070906 | 57 | 221 | 2.0 | 5.0 | 0.00 | 0.19 | 0.00 | 85 | 1010.1 |
| 20260510070145 | 57 | 243 | 2.0 | 5.0 | 0.00 | 0.19 | 0.00 | 85 | 1010.0 |
| 20260510065646 | 57 | 208 | 2.0 | 5.0 | 0.00 | 0.19 | 0.00 | 85 | 1010.0 |
| 20260510065146 | 57 | 230 | 3.0 | 5.0 | 0.00 | 0.19 | 0.00 | 85 | 1010.0 |
| 20260510064646 | 57 | 227 | 3.0 | 5.0 | 0.00 | 0.19 | 0.00 | 84 | 1010.0 |
| 20260510064145 | 58 | 241 | 3.0 | 6.0 | 0.00 | 0.19 | 0.00 | 84 | 1010.0 |
| 20260510063646 | 58 | 207 | 4.0 | 8.0 | 0.00 | 0.19 | 0.00 | 84 | 1010.0 |
| 20260510063403 | 58 | 228 | 4.0 | 8.0 | 0.00 | 0.19 | 0.00 | 84 | 1010.1 |
| 20260510062904 | 58 | 208 | 4.0 | 7.0 | 0.00 | 0.19 | 0.00 | 84 | 1010.1 |
| 20260510062143 | 58 | 242 | 4.0 | 7.0 | 0.00 | 0.19 | 0.00 | 84 | 1010.0 |
| 20260510061644 | 58 | 227 | 4.0 | 7.0 | 0.00 | 0.19 | 0.00 | 83 | 1010.0 |
| 20260510061143 | 58 | 230 | 4.0 | 7.0 | 0.00 | 0.19 | 0.00 | 83 | 1010.0 |
| 20260510060644 | 58 | 242 | 4.0 | 7.0 | 0.00 | 0.19 | 0.00 | 83 | 1010.0 |
| 20260510060143 | 58 | 240 | 4.0 | 8.0 | 0.00 | 0.19 | 0.00 | 83 | 1010.0 |
| 20260510055644 | 58 | 246 | 4.0 | 8.0 | 0.00 | 0.19 | 0.00 | 83 | 1010.0 |
| 20260510055143 | 58 | 220 | 5.0 | 8.0 | 0.00 | 0.19 | 0.00 | 83 | 1010.1 |
| 20260510054140 | 58 | 231 | 5.0 | 8.0 | 0.00 | 0.19 | 0.00 | 83 | 1010.1 |
| 20260510053641 | 58 | 246 | 4.0 | 8.0 | 0.00 | 0.19 | 0.00 | 83 | 1010.1 |
| 20260510053139 | 58 | 219 | 4.0 | 8.0 | 0.00 | 0.19 | 0.00 | 82 | 1010.1 |
| 20260510052639 | 58 | 264 | 5.0 | 8.0 | 0.00 | 0.19 | 0.00 | 83 | 1010.1 |
| 20260510052139 | 58 | 207 | 5.0 | 8.0 | 0.00 | 0.19 | 0.00 | 82 | 1010.1 |
| 20260510051639 | 58 | 230 | 5.0 | 9.0 | 0.00 | 0.19 | 0.00 | 82 | 1010.1 |
| 20260510051139 | 58 | 215 | 5.0 | 9.0 | 0.00 | 0.19 | 0.00 | 82 | 1010.1 |
| 20260510050640 | 58 | 241 | 5.0 | 8.0 | 0.00 | 0.19 | 0.00 | 82 | 1010.1 |
| 20260510050139 | 58 | 214 | 5.0 | 8.0 | 0.00 | 0.19 | 0.00 | 82 | 1010.1 |
| 20260510045640 | 58 | 226 | 4.0 | 8.0 | 0.00 | 0.19 | 0.00 | 82 | 1010.0 |
| 20260510045139 | 58 | 239 | 4.0 | 8.0 | 0.00 | 0.19 | 0.00 | 82 | 1010.1 |
| 20260510044859 | 58 | 241 | 4.0 | 7.0 | 0.00 | 0.19 | 0.00 | 82 | 1010.0 |
| 20260510044139 | 58 | 224 | 4.0 | 7.0 | 0.00 | 0.19 | 0.00 | 82 | 1010.0 |
| 20260510043639 | 58 | 236 | 4.0 | 8.0 | 0.00 | 0.19 | 0.00 | 82 | 1010.0 |
| 20260510043139 | 58 | 204 | 4.0 | 8.0 | 0.00 | 0.19 | 0.00 | 82 | 1010.0 |
| 20260510042639 | 58 | 232 | 3.0 | 7.0 | 0.00 | 0.19 | 0.00 | 82 | 1009.9 |
| 20260510042139 | 58 | 222 | 4.0 | 7.0 | 0.00 | 0.19 | 0.00 | 82 | 1010.0 |
| 20260510041905 | 58 | 224 | 4.0 | 6.0 | 0.00 | 0.19 | 0.00 | 82 | 1010.0 |
| 20260510041139 | 58 | 226 | 4.0 | 6.0 | 0.00 | 0.19 | 0.00 | 82 | 1010.0 |
| 20260510040640 | 58 | 227 | 3.0 | 5.0 | 0.00 | 0.19 | 0.00 | 81 | 1010.0 |
| 20260510040139 | 58 | 222 | 3.0 | 6.0 | 0.00 | 0.19 | 0.00 | 81 | 1009.9 |
| 20260510035137 | 58 | 218 | 3.0 | 6.0 | 0.00 | 0.19 | 0.19 | 81 | 1009.8 |
| 20260510034137 | 58 | 220 | 3.0 | 6.0 | 0.00 | 0.19 | 0.19 | 80 | 1009.8 |
| 20260510033636 | 58 | 227 | 3.0 | 6.0 | 0.00 | 0.19 | 0.19 | 80 | 1009.8 |
| 20260510033137 | 59 | 216 | 3.0 | 6.0 | 0.00 | 0.19 | 0.19 | 80 | 1009.8 |
| 20260510032637 | 59 | 220 | 3.0 | 6.0 | 0.00 | 0.19 | 0.19 | 80 | 1009.7 |
| 20260510032137 | 59 | 205 | 3.0 | 7.0 | 0.00 | 0.19 | 0.19 | 79 | 1009.7 |
| 20260510031637 | 59 | 230 | 4.0 | 7.0 | 0.00 | 0.19 | 0.19 | 79 | 1009.5 |
| 20260510031137 | 59 | 25 | 4.0 | 7.0 | 0.00 | 0.19 | 0.19 | 79 | 1009.5 |
| 20260510030638 | 59 | 219 | 4.0 | 7.0 | 0.00 | 0.19 | 0.19 | 78 | 1009.5 |
| 20260510030137 | 59 | 205 | 4.0 | 8.0 | 0.00 | 0.19 | 0.19 | 78 | 1009.5 |
| 20260510025635 | 59 | 220 | 4.0 | 9.0 | 0.00 | 0.19 | 0.19 | 79 | 1009.4 |
| 20260510025131 | 59 | 223 | 4.0 | 9.0 | 0.00 | 0.19 | 0.19 | 78 | 1009.4 |
| 20260510024132 | 60 | 214 | 5.0 | 9.0 | 0.00 | 0.19 | 0.19 | 77 | 1009.3 |
| 20260510023632 | 60 | 289 | 4.0 | 9.0 | 0.00 | 0.19 | 0.19 | 77 | 1009.3 |
| 20260510023132 | 60 | 197 | 4.0 | 7.0 | 0.00 | 0.19 | 0.19 | 77 | 1009.1 |
| 20260510022851 | 60 | 223 | 4.0 | 7.0 | 0.00 | 0.19 | 0.19 | 77 | 1009.0 |
| 20260510022132 | 60 | 224 | 4.0 | 8.0 | 0.00 | 0.19 | 0.19 | 77 | 1009.0 |
| 20260510021855 | 60 | 224 | 4.0 | 8.0 | 0.00 | 0.19 | 0.19 | 76 | 1008.9 |
| 20260510021132 | 59 | 209 | 3.0 | 8.0 | 0.00 | 0.19 | 0.19 | 77 | 1008.8 |
| 20260510020853 | 59 | 219 | 3.0 | 7.0 | 0.00 | 0.19 | 0.19 | 77 | 1008.8 |
| 20260510020130 | 60 | 234 | 3.0 | 6.0 | 0.00 | 0.19 | 0.19 | 77 | 1008.8 |
| 20260510015627 | 60 | 217 | 2.0 | 6.0 | 0.00 | 0.19 | 0.19 | 76 | 1008.9 |
| 20260510015126 | 60 | 215 | 2.0 | 5.0 | 0.00 | 0.19 | 0.19 | 76 | 1008.9 |
| 20260510014847 | 60 | 220 | 2.0 | 5.0 | 0.00 | 0.19 | 0.19 | 75 | 1008.8 |
| 20260510014128 | 60 | 220 | 2.0 | 5.0 | 0.00 | 0.19 | 0.19 | 75 | 1008.7 |
| 20260510013627 | 60 | 211 | 2.0 | 5.0 | 0.00 | 0.19 | 0.19 | 75 | 1008.7 |
| 20260510013127 | 60 | 218 | 2.0 | 5.0 | 0.00 | 0.19 | 0.19 | 74 | 1008.7 |
| 20260510012851 | 60 | 237 | 2.0 | 6.0 | 0.00 | 0.19 | 0.19 | 74 | 1008.7 |
| 20260510012127 | 61 | 234 | 2.0 | 6.0 | 0.00 | 0.19 | 0.19 | 74 | 1008.6 |
| 20260510011628 | 61 | 220 | 2.0 | 5.0 | 0.00 | 0.19 | 0.19 | 73 | 1008.5 |
| 20260510011127 | 61 | 210 | 2.0 | 5.0 | 0.00 | 0.19 | 0.19 | 73 | 1008.4 |
| 20260510010624 | 61 | 217 | 2.0 | 5.0 | 0.00 | 0.19 | 0.19 | 73 | 1008.3 |
| 20260510010124 | 61 | 226 | 2.0 | 5.0 | 0.00 | 0.19 | 0.19 | 72 | 1008.3 |
| 20260510005844 | 62 | 228 | 2.0 | 5.0 | 0.00 | 0.19 | 0.19 | 71 | 1008.2 |
| 20260510005124 | 62 | 215 | 2.0 | 5.0 | 0.00 | 0.19 | 0.19 | 71 | 1008.2 |
| 20260510004625 | 62 | 220 | 2.0 | 5.0 | 0.00 | 0.19 | 0.19 | 70 | 1008.2 |
| 20260510004126 | 62 | 210 | 2.0 | 4.0 | 0.00 | 0.19 | 0.19 | 70 | 1008.2 |
| 20260510003625 | 62 | 197 | 2.0 | 4.0 | 0.00 | 0.19 | 0.19 | 69 | 1008.1 |
| 20260510003125 | 63 | 222 | 2.0 | 5.0 | 0.00 | 0.19 | 0.19 | 69 | 1008.0 |
| 20260510002626 | 63 | 233 | 2.0 | 6.0 | 0.00 | 0.19 | 0.19 | 68 | 1008.0 |
| 20260510002125 | 63 | 206 | 3.0 | 7.0 | 0.00 | 0.19 | 0.19 | 68 | 1008.0 |
| 20260510001623 | 64 | 228 | 4.0 | 7.0 | 0.00 | 0.19 | 0.19 | 67 | 1008.0 |
| 20260510001123 | 64 | 235 | 3.0 | 7.0 | 0.00 | 0.19 | 0.19 | 66 | 1008.0 |
| 20260510000623 | 64 | 237 | 4.0 | 6.0 | 0.00 | 0.19 | 0.19 | 67 | 1008.0 |
| 20260510000350 | 64 | 235 | 3.0 | 6.0 | 0.00 | 0.19 | 0.19 | 66 | 1008.0 |
| 20260509235623 | 65 | 249 | 3.0 | 6.0 | 0.00 | 0.19 | 0.19 | 65 | 1007.9 |
| 20260509235123 | 65 | 218 | 3.0 | 6.0 | 0.00 | 0.19 | 0.19 | 64 | 1007.8 |
| 20260509234623 | 65 | 198 | 3.0 | 6.0 | 0.00 | 0.19 | 0.19 | 64 | 1007.7 |
| 20260509234124 | 66 | 225 | 4.0 | 8.0 | 0.00 | 0.19 | 0.19 | 63 | 1007.7 |
| 20260509233846 | 66 | 218 | 4.0 | 8.0 | 0.00 | 0.19 | 0.19 | 62 | 1007.6 |
| 20260509233123 | 66 | 170 | 4.0 | 9.0 | 0.00 | 0.19 | 0.19 | 62 | 1007.6 |
| 20260509232624 | 66 | 222 | 5.0 | 9.0 | 0.00 | 0.19 | 0.19 | 62 | 1007.6 |
| 20260509232121 | 66 | 219 | 5.0 | 10.0 | 0.00 | 0.19 | 0.19 | 61 | 1007.6 |
| 20260509231618 | 66 | 235 | 5.0 | 10.0 | 0.00 | 0.19 | 0.19 | 62 | 1007.5 |
| 20260509231117 | 67 | 200 | 6.0 | 11.0 | 0.00 | 0.19 | 0.19 | 61 | 1007.6 |
| 20260509230618 | 67 | 208 | 5.0 | 11.0 | 0.00 | 0.19 | 0.19 | 61 | 1007.5 |
| 20260509230339 | 67 | 171 | 5.0 | 11.0 | 0.00 | 0.19 | 0.19 | 61 | 1007.6 |
| 20260509225619 | 67 | 220 | 5.0 | 11.0 | 0.00 | 0.19 | 0.19 | 61 | 1007.6 |
| 20260509225118 | 67 | 185 | 5.0 | 10.0 | 0.00 | 0.19 | 0.19 | 61 | 1007.6 |
| 20260509224619 | 67 | 242 | 5.0 | 10.0 | 0.00 | 0.19 | 0.19 | 61 | 1007.7 |
| 20260509224119 | 67 | 216 | 6.0 | 10.0 | 0.00 | 0.19 | 0.19 | 61 | 1007.6 |
| 20260509223618 | 67 | 220 | 6.0 | 11.0 | 0.00 | 0.19 | 0.19 | 60 | 1007.6 |
| 20260509223336 | 67 | 185 | 5.0 | 11.0 | 0.00 | 0.19 | 0.19 | 60 | 1007.7 |
| 20260509222615 | 67 | 225 | 6.0 | 13.0 | 0.00 | 0.19 | 0.19 | 59 | 1007.8 |
| 20260509222116 | 67 | 232 | 6.0 | 13.0 | 0.00 | 0.19 | 0.19 | 60 | 1007.9 |
| 20260509221617 | 66 | 210 | 6.0 | 11.0 | 0.00 | 0.19 | 0.19 | 61 | 1007.9 |
| 20260509221117 | 66 | 217 | 5.0 | 11.0 | 0.00 | 0.19 | 0.19 | 62 | 1008.0 |
| 20260509220618 | 66 | 208 | 6.0 | 11.0 | 0.00 | 0.19 | 0.19 | 60 | 1008.1 |
| 20260509220118 | 67 | 243 | 6.0 | 11.0 | 0.00 | 0.19 | 0.19 | 60 | 1008.1 |
| 20260509215617 | 67 | 204 | 6.0 | 11.0 | 0.00 | 0.19 | 0.19 | 58 | 1007.9 |
| 20260509215118 | 67 | 168 | 5.0 | 11.0 | 0.00 | 0.19 | 0.19 | 58 | 1008.0 |
| 20260509214617 | 66 | 197 | 5.0 | 12.0 | 0.00 | 0.19 | 0.19 | 60 | 1008.0 |
| 20260509214118 | 66 | 217 | 6.0 | 12.0 | 0.00 | 0.19 | 0.19 | 61 | 1007.9 |
| 20260509213618 | 67 | 185 | 6.0 | 12.0 | 0.00 | 0.19 | 0.19 | 59 | 1008.0 |
| 20260509213116 | 67 | 292 | 4.0 | 10.0 | 0.00 | 0.19 | 0.19 | 58 | 1007.9 |
| 20260509212613 | 67 | 241 | 5.0 | 11.0 | 0.00 | 0.19 | 0.19 | 59 | 1007.9 |
| 20260509212114 | 67 | 218 | 6.0 | 12.0 | 0.00 | 0.19 | 0.19 | 59 | 1007.9 |
| 20260509211614 | 67 | 210 | 6.0 | 12.0 | 0.00 | 0.19 | 0.19 | 59 | 1008.0 |
| 20260509211113 | 68 | 248 | 5.0 | 10.0 | 0.00 | 0.19 | 0.19 | 57 | 1008.1 |
| 20260509210614 | 67 | 260 | 5.0 | 10.0 | 0.00 | 0.19 | 0.19 | 58 | 1008.1 |
| 20260509210114 | 68 | 236 | 5.0 | 10.0 | 0.00 | 0.19 | 0.19 | 58 | 1008.1 |
| 20260509205615 | 67 | 238 | 6.0 | 12.0 | 0.00 | 0.19 | 0.19 | 57 | 1008.1 |
| 20260509205114 | 67 | 175 | 6.0 | 12.0 | 0.00 | 0.19 | 0.19 | 59 | 1008.1 |
| 20260509204615 | 67 | 239 | 5.0 | 10.0 | 0.00 | 0.19 | 0.19 | 59 | 1008.0 |
| 20260509204114 | 67 | 242 | 6.0 | 10.0 | 0.00 | 0.19 | 0.19 | 59 | 1008.2 |
| 20260509203611 | 66 | 223 | 6.0 | 10.0 | 0.00 | 0.19 | 0.19 | 59 | 1008.1 |
| 20260509203112 | 67 | 210 | 6.0 | 13.0 | 0.00 | 0.19 | 0.19 | 60 | 1008.1 |
| 20260509202608 | 66 | 254 | 5.0 | 13.0 | 0.00 | 0.19 | 0.19 | 60 | 1008.1 |
| 20260509202109 | 66 | 231 | 6.0 | 12.0 | 0.00 | 0.19 | 0.19 | 60 | 1008.2 |
| 20260509201609 | 66 | 267 | 5.0 | 10.0 | 0.00 | 0.19 | 0.19 | 60 | 1008.3 |
| 20260509201109 | 65 | 271 | 5.0 | 10.0 | 0.00 | 0.19 | 0.19 | 63 | 1008.3 |
| 20260509200609 | 65 | 242 | 6.0 | 13.0 | 0.00 | 0.19 | 0.19 | 64 | 1008.5 |
| 20260509200110 | 65 | 273 | 7.0 | 16.0 | 0.00 | 0.19 | 0.19 | 64 | 1008.5 |
| 20260509195609 | 65 | 267 | 6.0 | 16.0 | 0.00 | 0.19 | 0.19 | 62 | 1008.5 |
| 20260509195110 | 65 | 231 | 6.0 | 11.0 | 0.00 | 0.19 | 0.19 | 63 | 1008.6 |
| 20260509194837 | 65 | 285 | 6.0 | 11.0 | 0.00 | 0.19 | 0.19 | 62 | 1008.5 |
| 20260509194328 | 66 | 278 | 6.0 | 11.0 | 0.00 | 0.19 | 0.19 | 63 | 1008.6 |
| 20260509193607 | 66 | 274 | 5.0 | 11.0 | 0.00 | 0.19 | 0.19 | 62 | 1008.7 |
| 20260509193107 | 65 | 228 | 5.0 | 9.0 | 0.00 | 0.19 | 0.19 | 64 | 1008.7 |
| 20260509192606 | 64 | 209 | 5.0 | 13.0 | 0.00 | 0.19 | 0.19 | 67 | 1008.7 |
| 20260509192107 | 64 | 254 | 6.0 | 13.0 | 0.00 | 0.19 | 0.19 | 67 | 1008.7 |
| 20260509191608 | 64 | 221 | 6.0 | 11.0 | 0.00 | 0.19 | 0.19 | 67 | 1008.7 |
| 20260509191107 | 64 | 213 | 6.0 | 10.0 | 0.00 | 0.19 | 0.19 | 68 | 1008.8 |
| 20260509190608 | 65 | 235 | 5.0 | 9.0 | 0.00 | 0.19 | 0.19 | 68 | 1008.9 |
| 20260509190107 | 65 | 248 | 5.0 | 9.0 | 0.00 | 0.19 | 0.19 | 66 | 1008.8 |
| 20260509185604 | 64 | 153 | 5.0 | 11.0 | 0.00 | 0.19 | 0.19 | 69 | 1008.9 |
| 20260509185104 | 64 | 202 | 6.0 | 11.0 | 0.00 | 0.19 | 0.19 | 67 | 1008.8 |
| 20260509184601 | 64 | 204 | 4.0 | 9.0 | 0.00 | 0.19 | 0.19 | 69 | 1008.9 |
| 20260509184102 | 63 | 190 | 4.0 | 9.0 | 0.00 | 0.19 | 0.19 | 72 | 1008.9 |
| 20260509183602 | 62 | 239 | 4.0 | 10.0 | 0.00 | 0.19 | 0.19 | 71 | 1009.0 |
| 20260509183324 | 62 | 224 | 5.0 | 10.0 | 0.00 | 0.19 | 0.19 | 71 | 1009.0 |
| 20260509182822 | 62 | 257 | 5.0 | 9.0 | 0.00 | 0.19 | 0.19 | 71 | 1009.1 |
| 20260509182102 | 62 | 233 | 5.0 | 10.0 | 0.00 | 0.19 | 0.19 | 73 | 1009.2 |
| 20260509181602 | 62 | 202 | 6.0 | 10.0 | 0.00 | 0.19 | 0.19 | 73 | 1009.1 |
| 20260509181103 | 62 | 210 | 4.0 | 8.0 | 0.00 | 0.19 | 0.19 | 72 | 1009.2 |
| 20260509180603 | 62 | 289 | 4.0 | 8.0 | 0.00 | 0.19 | 0.19 | 74 | 1009.2 |
| 20260509180103 | 62 | 205 | 4.0 | 8.0 | 0.00 | 0.19 | 0.19 | 74 | 1009.1 |
| 20260509175600 | 62 | 270 | 4.0 | 10.0 | 0.00 | 0.19 | 0.19 | 73 | 1009.1 |
| 20260509175100 | 61 | 221 | 4.0 | 10.0 | 0.00 | 0.19 | 0.19 | 74 | 1009.2 |
| 20260509174600 | 61 | 254 | 5.0 | 11.0 | 0.00 | 0.19 | 0.19 | 75 | 1009.1 |
| 20260509174100 | 61 | 210 | 5.0 | 11.0 | 0.00 | 0.19 | 0.19 | 75 | 1009.2 |
| 20260509173600 | 62 | 247 | 4.0 | 10.0 | 0.00 | 0.19 | 0.19 | 76 | 1009.2 |
| 20260509173326 | 62 | 216 | 4.0 | 8.0 | 0.00 | 0.19 | 0.19 | 76 | 1009.3 |
| 20260509172600 | 62 | 229 | 4.0 | 8.0 | 0.00 | 0.19 | 0.19 | 75 | 1009.2 |
| 20260509172101 | 61 | 223 | 4.0 | 9.0 | 0.00 | 0.19 | 0.19 | 76 | 1009.2 |
| 20260509171601 | 60 | 225 | 4.0 | 9.0 | 0.00 | 0.19 | 0.19 | 77 | 1009.2 |
| 20260509171100 | 59 | 197 | 4.0 | 8.0 | 0.00 | 0.19 | 0.19 | 79 | 1009.2 |
| 20260509170601 | 59 | 253 | 4.0 | 9.0 | 0.00 | 0.19 | 0.19 | 80 | 1009.3 |
| 20260509170058 | 58 | 237 | 5.0 | 9.0 | 0.00 | 0.19 | 0.19 | 80 | 1009.2 |
| 20260509165557 | 58 | 238 | 6.0 | 13.0 | 0.00 | 0.19 | 0.19 | 81 | 1009.2 |
| 20260509165325 | 58 | 222 | 5.0 | 13.0 | 0.00 | 0.19 | 0.19 | 82 | 1009.2 |
| 20260509164559 | 58 | 150 | 4.0 | 7.0 | 0.00 | 0.19 | 0.19 | 85 | 1009.1 |
| 20260509164058 | 58 | 240 | 4.0 | 8.0 | 0.00 | 0.19 | 0.19 | 85 | 1009.1 |
| 20260509163558 | 58 | 212 | 4.0 | 8.0 | 0.00 | 0.19 | 0.19 | 85 | 1009.1 |
| 20260509163058 | 58 | 213 | 4.0 | 10.0 | 0.00 | 0.19 | 0.19 | 87 | 1009.1 |
| 20260509162559 | 57 | 229 | 6.0 | 10.0 | 0.00 | 0.19 | 0.19 | 88 | 1009.1 |
| 20260509162059 | 56 | 188 | 5.0 | 10.0 | 0.00 | 0.19 | 0.19 | 89 | 1009.0 |
| 20260509161558 | 56 | 229 | 4.0 | 9.0 | 0.00 | 0.19 | 0.19 | 90 | 1009.1 |
| 20260509161059 | 55 | 71 | 4.0 | 7.0 | 0.00 | 0.19 | 0.19 | 92 | 1009.1 |
| 20260509160556 | 54 | 223 | 4.0 | 7.0 | 0.00 | 0.19 | 0.19 | 94 | 1009.0 |
| 20260509160056 | 54 | 218 | 3.0 | 7.0 | 0.00 | 0.19 | 0.19 | 95 | 1009.0 |
| 20260509155556 | 53 | 227 | 3.0 | 7.0 | 0.00 | 0.19 | 0.19 | 96 | 1008.9 |
| 20260509155056 | 53 | 156 | 3.0 | 6.0 | 0.00 | 0.19 | 0.19 | 96 | 1008.9 |
| 20260509154817 | 53 | 219 | 4.0 | 6.0 | 0.00 | 0.19 | 0.19 | 96 | 1008.7 |
| 20260509154057 | 53 | 198 | 3.0 | 5.0 | 0.00 | 0.19 | 0.19 | 97 | 1008.8 |
| 20260509153556 | 53 | 198 | 2.0 | 3.0 | 0.00 | 0.19 | 0.19 | 97 | 1008.9 |
| 20260509153056 | 53 | 212 | 2.0 | 3.0 | 0.00 | 0.19 | 0.19 | 96 | 1008.9 |
| 20260509152556 | 53 | 237 | 2.0 | 3.0 | 0.00 | 0.19 | 0.19 | 95 | 1008.9 |
| 20260509152317 | 53 | 236 | 2.0 | 4.0 | 0.00 | 0.19 | 0.19 | 95 | 1008.9 |
| 20260509151803 | 52 | 225 | 2.0 | 4.0 | 0.00 | 0.19 | 0.19 | 95 | 1008.8 |
| 20260509151027 | 52 | 214 | 2.0 | 3.0 | 0.00 | 0.19 | 0.19 | 96 | 1008.8 |
| 20260509150512 | 52 | 124 | 2.0 | 3.0 | 0.00 | 0.19 | 0.19 | 96 | 1008.8 |
| 20260509150012 | 52 | 224 | 2.0 | 3.0 | 0.00 | 0.19 | 0.19 | 96 | 1008.8 |
| 20260509145512 | 52 | 183 | 3.0 | 5.0 | 0.00 | 0.18 | 0.18 | 95 | 1008.7 |
| 20260509145012 | 53 | 170 | 3.0 | 6.0 | 0.00 | 0.18 | 0.18 | 96 | 1008.8 |
| 20260509144503 | 53 | 218 | 3.0 | 6.0 | 0.00 | 0.18 | 0.18 | 95 | 1008.8 |
| 20260509144004 | 53 | 217 | 3.0 | 5.0 | 0.00 | 0.18 | 0.18 | 96 | 1008.7 |
| 20260509143504 | 53 | 161 | 3.0 | 6.0 | 0.00 | 0.18 | 0.18 | 96 | 1008.7 |
| 20260509143004 | 52 | 203 | 3.0 | 6.0 | 0.00 | 0.18 | 0.18 | 96 | 1008.8 |
| 20260509142504 | 52 | 214 | 3.0 | 6.0 | 0.00 | 0.18 | 0.18 | 97 | 1008.9 |
| 20260509142004 | 52 | 197 | 3.0 | 6.0 | 0.00 | 0.18 | 0.18 | 97 | 1008.9 |
| 20260509141504 | 52 | 213 | 3.0 | 6.0 | 0.00 | 0.18 | 0.18 | 98 | 1008.9 |
| 20260509141003 | 51 | 188 | 3.0 | 5.0 | 0.00 | 0.18 | 0.18 | 98 | 1009.1 |
| 20260509140503 | 51 | 194 | 2.0 | 5.0 | 0.00 | 0.18 | 0.18 | 99 | 1009.2 |
| 20260509135958 | 51 | 179 | 2.0 | 4.0 | 0.00 | 0.18 | 0.18 | 99 | 1009.2 |
| 20260509135458 | 51 | 208 | 2.0 | 4.0 | 0.00 | 0.18 | 0.18 | 98 | 1009.1 |
| 20260509134958 | 51 | 145 | 2.0 | 4.0 | 0.00 | 0.18 | 0.18 | 98 | 1009.2 |
| 20260509134459 | 51 | 136 | 2.0 | 4.0 | 0.00 | 0.18 | 0.18 | 99 | 1009.2 |
| 20260509133958 | 51 | 198 | 2.0 | 4.0 | 0.01 | 0.18 | 0.18 | 99 | 1009.3 |
| 20260509133457 | 51 | 149 | 2.0 | 4.0 | 0.01 | 0.18 | 0.18 | 99 | 1009.4 |
| 20260509132957 | 51 | 227 | 3.0 | 6.0 | 0.01 | 0.18 | 0.18 | 99 | 1009.5 |
| 20260509132457 | 51 | 227 | 3.0 | 6.0 | 0.01 | 0.18 | 0.18 | 99 | 1009.7 |
| 20260509131956 | 51 | 228 | 3.0 | 4.0 | 0.02 | 0.18 | 0.18 | 99 | 1009.7 |
| 20260509131457 | 51 | 174 | 3.0 | 5.0 | 0.02 | 0.18 | 0.18 | 99 | 1009.7 |
| 20260509130957 | 50 | 211 | 3.0 | 6.0 | 0.03 | 0.18 | 0.18 | 99 | 1009.7 |
| 20260509130447 | 50 | 230 | 3.0 | 6.0 | 0.04 | 0.18 | 0.18 | 99 | 1009.7 |
| 20260509130209 | 50 | 205 | 3.0 | 5.0 | 0.04 | 0.18 | 0.18 | 99 | 1009.7 |
| 20260509125703 | 50 | 205 | 3.0 | 5.0 | 0.04 | 0.18 | 0.18 | 99 | 1009.7 |
| 20260509124945 | 50 | 215 | 3.0 | 7.0 | 0.05 | 0.18 | 0.18 | 99 | 1009.7 |
| 20260509124430 | 50 | 223 | 4.0 | 7.0 | 0.05 | 0.17 | 0.17 | 99 | 1009.7 |
| 20260509123930 | 50 | 204 | 4.0 | 6.0 | 0.05 | 0.17 | 0.17 | 99 | 1009.5 |
| 20260509123429 | 50 | 199 | 3.0 | 6.0 | 0.06 | 0.17 | 0.17 | 99 | 1009.7 |
| 20260509122929 | 50 | 200 | 3.0 | 5.0 | 0.06 | 0.17 | 0.17 | 99 | 1009.5 |
| 20260509122429 | 50 | 214 | 3.0 | 5.0 | 0.06 | 0.17 | 0.17 | 99 | 1009.5 |
| 20260509121929 | 50 | 180 | 3.0 | 6.0 | 0.05 | 0.16 | 0.16 | 99 | 1009.7 |
| 20260509121429 | 50 | 212 | 3.0 | 7.0 | 0.05 | 0.16 | 0.16 | 99 | 1009.7 |
| 20260509121152 | 50 | 224 | 3.0 | 7.0 | 0.04 | 0.15 | 0.15 | 99 | 1009.8 |
| 20260509120654 | 50 | 214 | 3.0 | 7.0 | 0.04 | 0.15 | 0.15 | 99 | 1009.8 |
| 20260509120202 | 50 | 213 | 3.0 | 4.0 | 0.04 | 0.14 | 0.14 | 99 | 1009.8 |
| 20260509115430 | 50 | 199 | 3.0 | 5.0 | 0.04 | 0.13 | 0.13 | 99 | 1009.8 |
| 20260509114918 | 50 | 217 | 3.0 | 5.0 | 0.04 | 0.13 | 0.13 | 98 | 1009.8 |
| 20260509114414 | 50 | 215 | 3.0 | 7.0 | 0.04 | 0.13 | 0.13 | 98 | 1009.8 |
| 20260509113400 | 50 | 149 | 4.0 | 7.0 | 0.03 | 0.12 | 0.12 | 98 | 1009.7 |
| 20260509112900 | 50 | 229 | 4.0 | 7.0 | 0.03 | 0.11 | 0.11 | 98 | 1009.7 |
| 20260509112624 | 50 | 198 | 3.0 | 5.0 | 0.04 | 0.11 | 0.11 | 98 | 1009.5 |
| 20260509111900 | 50 | 227 | 2.0 | 4.0 | 0.03 | 0.11 | 0.11 | 98 | 1009.5 |
| 20260509111401 | 50 | 205 | 3.0 | 5.0 | 0.03 | 0.11 | 0.11 | 98 | 1009.4 |
| 20260509110901 | 50 | 210 | 3.0 | 5.0 | 0.03 | 0.11 | 0.11 | 98 | 1009.4 |
| 20260509110400 | 50 | 196 | 2.0 | 5.0 | 0.02 | 0.10 | 0.10 | 98 | 1009.3 |
| 20260509105900 | 50 | 220 | 3.0 | 5.0 | 0.02 | 0.10 | 0.10 | 98 | 1009.3 |
| 20260509105400 | 50 | 203 | 2.0 | 4.0 | 0.02 | 0.10 | 0.10 | 98 | 1009.3 |